• In Österreich
  • Länderverzeichnis
  • Für 7 Tage
  • Wassertemperatur
  • Satellitenkarten
  • Wetterkarte
  • News
  • Widgets
  • user-avatar
    Anmelden

    Stündliche Wetter La Massana

    Heute, 17 Februar, Samstag

    Zeit Temperatur Niederschläge Wind Luftdruck Luftfeuchtigkeit
    00:00 +1°C° 0 mm 1 m/S 611 mmHg 89%
    01:00 +1°C° 0 mm 1 m/S 610 mmHg 89%
    02:00 +1°C° 0 mm 1 m/S 610 mmHg 89%
    03:00 +1°C° 0 mm 1 m/S 610 mmHg 88%
    04:00 +1°C° 0,3 mm 1 m/S 610 mmHg 90%
    05:00 +1°C° 0,3 mm 1 m/S 610 mmHg 91%
    06:00 +1°C° 0 mm 1 m/S 610 mmHg 91%
    07:00 +1°C° 0,5 mm 1 m/S 611 mmHg 91%
    08:00 +1°C° 0,5 mm 2 m/S 611 mmHg 91%
    09:00 +1°C° 0,5 mm 2 m/S 612 mmHg 91%
    10:00 +1°C° 0,2 mm 2 m/S 612 mmHg 89%
    11:00 0°C° 0,2 mm 3 m/S 612 mmHg 88%
    12:00 0°C° 0 mm 3 m/S 612 mmHg 87%
    13:00 0°C° 0,3 mm 3 m/S 612 mmHg 87%
    14:00 0°C° 0,3 mm 3 m/S 612 mmHg 86%
    15:00 0°C° 0,3 mm 3 m/S 611 mmHg 85%
    16:00 -1°C° 0,2 mm 3 m/S 611 mmHg 86%
    17:00 -2°C° 0,2 mm 3 m/S 611 mmHg 87%
    18:00 -4°C° 0,2 mm 3 m/S 611 mmHg 88%
    19:00 -5°C° 0 mm 3 m/S 611 mmHg 87%
    20:00 -5°C° 0 mm 3 m/S 611 mmHg 85%
    21:00 -6°C° 0 mm 3 m/S 611 mmHg 84%
    22:00 -7°C° 0 mm 3 m/S 611 mmHg 84%
    23:00 -7°C° 0 mm 3 m/S 610 mmHg 84%

    Morgen, 18 Februar, Sonntag

    Zeit Temperatur Niederschläge Wind Luftdruck Luftfeuchtigkeit
    00:00 -7°C° 0 mm 3 m/S 610 mmHg 84%
    01:00 -8°C° 0 mm 3 m/S 610 mmHg 84%
    02:00 -8°C° 0 mm 3 m/S 610 mmHg 84%
    03:00 -8°C° 0 mm 3 m/S 610 mmHg 84%
    04:00 -8°C° 0 mm 3 m/S 610 mmHg 83%
    05:00 -8°C° 0 mm 3 m/S 610 mmHg 82%
    06:00 -9°C° 0 mm 3 m/S 609 mmHg 81%
    07:00 -7°C° 0 mm 3 m/S 610 mmHg 77%
    08:00 -5°C° 0 mm 2 m/S 611 mmHg 73%
    09:00 -4°C° 0 mm 2 m/S 611 mmHg 68%
    10:00 -2°C° 0 mm 2 m/S 612 mmHg 66%
    11:00 -1°C° 0 mm 3 m/S 612 mmHg 63%
    12:00 0°C° 0 mm 3 m/S 612 mmHg 60%
    13:00 0°C° 0 mm 3 m/S 612 mmHg 61%
    14:00 0°C° 0 mm 3 m/S 611 mmHg 61%
    15:00 0°C° 0 mm 3 m/S 611 mmHg 62%
    16:00 -2°C° 0 mm 2 m/S 610 mmHg 69%
    17:00 -3°C° 0 mm 2 m/S 610 mmHg 76%
    18:00 -5°C° 0 mm 2 m/S 609 mmHg 83%
    19:00 -5°C° 0 mm 2 m/S 609 mmHg 84%
    20:00 -5°C° 0 mm 2 m/S 609 mmHg 85%
    21:00 -6°C° 0 mm 2 m/S 608 mmHg 86%
    22:00 -6°C° 0 mm 2 m/S 608 mmHg 86%
    23:00 -6°C° 0 mm 2 m/S 608 mmHg 86%

    übermorgen, 19 Februar, Montag

    Zeit Temperatur Niederschläge Wind Luftdruck Luftfeuchtigkeit
    00:00 -7°C° 0 mm 2 m/S 608 mmHg 86%
    01:00 -7°C° 0 mm 2 m/S 607 mmHg 85%
    02:00 -7°C° 0 mm 2 m/S 607 mmHg 85%
    03:00 -7°C° 0 mm 2 m/S 607 mmHg 84%
    04:00 -7°C° 0 mm 2 m/S 607 mmHg 82%
    05:00 -8°C° 0 mm 2 m/S 607 mmHg 81%
    06:00 -8°C° 0 mm 2 m/S 606 mmHg 79%
    07:00 -6°C° 0 mm 2 m/S 607 mmHg 74%
    08:00 -4°C° 0 mm 2 m/S 608 mmHg 69%
    09:00 -3°C° 0 mm 2 m/S 609 mmHg 64%
    10:00 -2°C° 0 mm 2 m/S 609 mmHg 61%
    11:00 -1°C° 0 mm 2 m/S 610 mmHg 58%
    12:00 +1°C° 0 mm 2 m/S 610 mmHg 55%
    13:00 0°C° 0 mm 3 m/S 609 mmHg 56%
    14:00 0°C° 0 mm 3 m/S 609 mmHg 58%
    15:00 0°C° 0 mm 3 m/S 609 mmHg 59%
    16:00 -1°C° 0 mm 3 m/S 608 mmHg 68%
    17:00 -4°C° 0 mm 3 m/S 607 mmHg 76%
    18:00 -5°C° 0 mm 2 m/S 607 mmHg 84%
    19:00 -5°C° 0 mm 2 m/S 607 mmHg 85%
    20:00 -5°C° 0 mm 2 m/S 607 mmHg 85%
    21:00 -6°C° 0 mm 3 m/S 607 mmHg 86%
    22:00 -6°C° 0 mm 3 m/S 607 mmHg 85%
    23:00 -6°C° 0 mm 3 m/S 607 mmHg 84%

    20 Februar, Dienstag

    Zeit Temperatur Niederschläge Wind Luftdruck Luftfeuchtigkeit
    00:00 -7°C° 0 mm 3 m/S 607 mmHg 83%
    01:00 -7°C° 0 mm 3 m/S 607 mmHg 82%
    02:00 -7°C° 0 mm 3 m/S 607 mmHg 82%
    03:00 -7°C° 0 mm 3 m/S 606 mmHg 81%
    04:00 -6°C° 0 mm 3 m/S 606 mmHg 81%
    05:00 -6°C° 0 mm 3 m/S 606 mmHg 82%
    06:00 -6°C° 0 mm 3 m/S 606 mmHg 82%
    07:00 -5°C° 0 mm 3 m/S 607 mmHg 79%
    08:00 -4°C° 0 mm 3 m/S 607 mmHg 76%
    09:00 -2°C° 0 mm 3 m/S 608 mmHg 73%
    10:00 -1°C° 0,1 mm 3 m/S 608 mmHg 73%
    11:00 0°C° 0,1 mm 3 m/S 608 mmHg 72%
    12:00 0°C° 0,1 mm 3 m/S 608 mmHg 72%
    13:00 0°C° 0,4 mm 3 m/S 608 mmHg 74%
    14:00 0°C° 0,4 mm 3 m/S 607 mmHg 76%
    15:00 0°C° 0,4 mm 3 m/S 607 mmHg 78%
    16:00 -1°C° 0,9 mm 3 m/S 606 mmHg 81%
    17:00 -1°C° 0,9 mm 3 m/S 606 mmHg 83%
    18:00 -2°C° 0,9 mm 3 m/S 605 mmHg 86%
    19:00 -2°C° 0,5 mm 3 m/S 605 mmHg 86%
    20:00 -4°C° 0,5 mm 4 m/S 605 mmHg 87%
    21:00 -4°C° 0,5 mm 4 m/S 605 mmHg 87%
    22:00 -4°C° 0,3 mm 4 m/S 605 mmHg 86%
    23:00 -4°C° 0,3 mm 4 m/S 605 mmHg 86%

    21 Februar, Mittwoch

    Zeit Temperatur Niederschläge Wind Luftdruck Luftfeuchtigkeit
    00:00 -5°C° 0,3 mm 4 m/S 604 mmHg 86%
    01:00 -5°C° 0,5 mm 4 m/S 604 mmHg 86%
    02:00 -5°C° 0,5 mm 4 m/S 604 mmHg 86%
    03:00 -5°C° 0,5 mm 4 m/S 603 mmHg 86%
    04:00 -7°C° 0,6 mm 4 m/S 603 mmHg 86%
    05:00 -7°C° 0,6 mm 4 m/S 603 mmHg 86%
    06:00 -7°C° 0,6 mm 4 m/S 602 mmHg 86%
    07:00 -7°C° 0,2 mm 4 m/S 603 mmHg 83%
    08:00 -7°C° 0,2 mm 4 m/S 603 mmHg 80%
    09:00 -7°C° 0,2 mm 4 m/S 603 mmHg 77%
    10:00 -7°C° 0,1 mm 4 m/S 603 mmHg 74%
    11:00 -5°C° 0,1 mm 4 m/S 603 mmHg 70%
    12:00 -5°C° 0,1 mm 4 m/S 603 mmHg 67%
    13:00 -5°C° 0,1 mm 4 m/S 602 mmHg 67%
    14:00 -5°C° 0,1 mm 4 m/S 602 mmHg 67%
    15:00 -5°C° 0,1 mm 4 m/S 602 mmHg 67%
    16:00 -7°C° 0,1 mm 4 m/S 601 mmHg 70%
    17:00 -9°C° 0,1 mm 4 m/S 601 mmHg 74%
    18:00 -9°C° 0,1 mm 3 m/S 601 mmHg 77%
    19:00 -9°C° 0,1 mm 3 m/S 601 mmHg 78%
    20:00 -9°C° 0,1 mm 3 m/S 601 mmHg 79%
    21:00 -10°C° 0,1 mm 3 m/S 601 mmHg 79%
    22:00 -10°C° 0,1 mm 3 m/S 600 mmHg 79%
    23:00 -10°C° 0,1 mm 3 m/S 600 mmHg 80%

    22 Februar, Donnerstag

    Zeit Temperatur Niederschläge Wind Luftdruck Luftfeuchtigkeit
    00:00 -12°C° 0,1 mm 3 m/S 600 mmHg 80%
    01:00 -12°C° 0 mm 3 m/S 599 mmHg 80%
    02:00 -12°C° 0 mm 3 m/S 599 mmHg 80%
    03:00 -13°C° 0 mm 3 m/S 598 mmHg 80%
    04:00 -13°C° 0 mm 3 m/S 598 mmHg 79%
    05:00 -13°C° 0 mm 3 m/S 598 mmHg 79%
    06:00 -14°C° 0 mm 3 m/S 598 mmHg 79%
    07:00 -13°C° 0 mm 3 m/S 598 mmHg 75%
    08:00 -10°C° 0 mm 3 m/S 599 mmHg 71%
    09:00 -9°C° 0 mm 3 m/S 599 mmHg 68%
    10:00 -8°C° 0 mm 3 m/S 599 mmHg 65%
    11:00 -7°C° 0 mm 3 m/S 600 mmHg 63%
    12:00 -5°C° 0 mm 2 m/S 600 mmHg 61%
    13:00 -5°C° 0 mm 2 m/S 600 mmHg 62%
    14:00 -6°C° 0 mm 2 m/S 599 mmHg 63%
    15:00 -6°C° 0 mm 2 m/S 599 mmHg 64%
    16:00 -7°C° 0,1 mm 2 m/S 599 mmHg 70%
    17:00 -8°C° 0,1 mm 2 m/S 599 mmHg 76%
    18:00 -8°C° 0,1 mm 1 m/S 599 mmHg 81%
    19:00 -8°C° 0,1 mm 1 m/S 599 mmHg 83%
    20:00 -9°C° 0,1 mm 1 m/S 599 mmHg 84%
    21:00 -9°C° 0,1 mm 1 m/S 599 mmHg 85%
    22:00 -9°C° 0 mm 1 m/S 599 mmHg 84%
    23:00 -10°C° 0 mm 1 m/S 599 mmHg 83%
    Mehr zeigen